Change the Weather History Date:

Thursday, January 17, 2013

  Actual Average Record
Temperature  
Mean Temperature 35 °F -  
Max Temperature 51 °F 47 °F 63 °F (2000)
Min Temperature 19 °F 18 °F -2 °F (2008)
Degree Days  
Heating Degree Days 30 33  
Month to date heating degree days 644 566  
Since 1 July heating degree days 2578 2724  
Cooling Degree Days 0 0  
Month to date cooling degree days 0 0  
Year to date cooling degree days 0 0  
Moisture  
Dew Point 19 °F    
Average Humidity 52    
Maximum Humidity 77    
Minimum Humidity 27    
Precipitation  
Precipitation 0.00 in 0.01 in 0.22 in (2011)
Month to date precipitation 0.02 0.14  
Year to date precipitation 0.02 0.14  
Sea Level Pressure  
Sea Level Pressure 30.40 in    
Wind  
Wind Speed 9 mph (WSW)    
Max Wind Speed 18 mph    
Max Gust Speed 22 mph    
T = Trace of Precipitation, MM = Missing Value Source: NWS Daily Summary

Daily Weather History Graph

Daily Weather History Graph

Search for Another Location

Airport or City:

Trip Planner

Search our weather history database for the weather conditions in past years. The results will help you decide how hot, cold, wet, or windy it might be!

Date:

Astronomy

Jan. 17, 2013 Rise Set
Actual Time 7:02 AM MST 4:59 PM MST
Civil Twilight 6:34 AM MST 5:27 PM MST
Nautical Twilight 6:02 AM MST 5:59 PM MST
Astronomical Twilight 5:31 AM MST 6:30 PM MST
Moon 10:20 AM MST (1/17) 11:42 PM MST (1/17)
Length of Visible Light 10h 53m
Length of Day
9h 56m
Waxing Crescent, 38% of the Moon is Illuminated
Jan 17
Waxing Crescent
Jan 18
First Quarter
Jan 26
Full
Feb 3
Last Quarter
Feb 10
New

Hourly Weather History & Observations

Time (MST) Temp. Windchill Dew Point Humidity Pressure Visibility Wind Dir Wind Speed Gust Speed Precip Events Conditions
12:56 AM 28.9 °F 21.1 °F 18.0 °F 64% 30.37 in - NNW 8.1 mph - N/A   Unknown
1:56 AM 26.1 °F 16.2 °F 17.1 °F 69% 30.39 in - NW 10.4 mph - N/A   Unknown
2:56 AM 23.0 °F 13.1 °F 16.0 °F 74% 30.41 in - NNW 9.2 mph - N/A   Unknown
3:56 AM 21.9 °F 11.7 °F 15.1 °F 75% 30.41 in - NW 9.2 mph - N/A   Unknown
4:56 AM 21.0 °F 14.6 °F 14.0 °F 74% 30.45 in - NW 4.6 mph - N/A   Unknown
5:56 AM 21.9 °F 11.7 °F 15.1 °F 75% 30.46 in - NW 9.2 mph - N/A   Unknown
6:56 AM 24.1 °F 14.4 °F 15.1 °F 69% 30.50 in - NW 9.2 mph - N/A   Unknown
7:56 AM 27.0 °F - 18.0 °F 69% 30.51 in - Calm Calm - N/A   Unknown
8:56 AM 37.0 °F 32.4 °F 21.9 °F 54% 30.51 in - NW 5.8 mph - N/A   Unknown
9:56 AM 43.0 °F - 19.0 °F 38% 30.51 in - Calm Calm - N/A   Unknown
10:56 AM 46.0 °F 43.9 °F 19.0 °F 34% 30.48 in - SSW 4.6 mph - N/A   Unknown
11:56 AM 48.9 °F - 18.0 °F 29% 30.43 in - South 4.6 mph - N/A   Unknown
12:56 PM 50.0 °F - 18.0 °F 28% 30.38 in - South 10.4 mph 17.3 mph N/A   Unknown
1:56 PM 50.0 °F - 18.0 °F 28% 30.37 in - SSW 13.8 mph - N/A   Unknown
2:56 PM 51.1 °F - 19.9 °F 29% 30.36 in - SSW 15.0 mph 21.9 mph N/A   Unknown
3:56 PM 48.9 °F - 19.9 °F 32% 30.37 in - SSW 16.1 mph - N/A   Unknown
4:56 PM 42.1 °F 35.2 °F 21.0 °F 43% 30.38 in - SSW 12.7 mph - N/A   Unknown
5:56 PM 37.9 °F 30.0 °F 21.9 °F 53% 30.40 in - SSW 12.7 mph - N/A   Unknown
6:56 PM 34.0 °F 25.5 °F 21.0 °F 59% 30.40 in - SW 11.5 mph - N/A   Unknown
7:56 PM 35.1 °F 26.4 °F 21.9 °F 59% 30.37 in - SW 12.7 mph - N/A   Unknown
8:56 PM 34.0 °F 25.5 °F 21.9 °F 61% 30.33 in - SW 11.5 mph - N/A   Unknown
9:56 PM 33.1 °F 25.5 °F 21.9 °F 64% 30.31 in - SW 9.2 mph - N/A   Unknown
10:56 PM 33.1 °F 24.9 °F 21.9 °F 64% 30.27 in - WSW 10.4 mph - N/A   Unknown
11:56 PM 33.1 °F 25.5 °F 21.9 °F 64% 30.24 in - WSW 9.2 mph - N/A   Unknown